NOAA 16 DEB, 41203

Orbit data source: Space-Track

NOAA 16 DEB, 41203 is space debris in SSO originally from a launch on Thu, 21 Sep 2000 UTC launched from the Air Force Western Test Range (AFWTR). Debris objects in space refer to the collection of defunct objects orbiting the Earth. Examples of debris include non-operational satellites, rocket bodies, and fragments generated from explosions, collisions, or faulty payload assembly.

Loading next visibility...
Identifier
41203, 2000-055DG
Orbit
SSO
Country
Flag of USUS
Related business
Manufacturer
Unknown
Mission
Spacecraft
Bus & Motor
Unknown
Mass
Unknown
Launch date (UTC)
2000-09-21 (25 years ago)
Launch vehicle
Unknown
Launch site
Air Force Western Test Range (AFWTR)
Object type
Payload
Rocket body
Debris
Shape & HBR
Unknown
Radar Cross Section
Small (<0.1 m²)

Expand to show TLE details & history
Last TLE update: 16 hours ago

TLE from 16 hours ago
0 NOAA 16 DEB
1 41203U 00055DG  25259.37902922  .00002431  00000-0  11934-2 0  9997
2 41203  98.7045 302.6387 0034021 192.4299 167.6041 14.18335364502965
Epoch: 2025-09-16T09:05Z
TLE epoch observation values (Epoch: 2025-09-16T09:05:48.124Z)
Latitude
-0.00002°
Longitude
170.61801°
Altitude
857.863 km
Speed
7.411 km/s
True Right ascension
20h 10m 33s
True Declination
0° 00' 00"
Sunlit
Object was in full shadow at epoch
Visualization orbit readout
Latitude
Unknown
Longitude
Unknown
Altitude
Unknown
Speed
Unknown
Apparent Right ascension
Unknown
Apparent Declination
Unknown
Sunlit
N/A
Visualization observer readout
Local Sidereal Time
17:36:25
Azimuth
Unknown
Elevation
Unknown
Doppler factor
Unknown
Orbital elements
Apogee altitude
852.665 km
Perigee altitude
803.632 km
Semi-major axis
7,206.285 km
Eccentricity
0.0034
Inclination
98.7045°
RAAN
302.6387°
Arg. of periapsis
192.4299°
True anomaly
167.68744°
Mean anomaly
167.6041°
Eccentric anomaly
167.64581°
Mean motion
3.54794 °/min
Orbital period
101.47 mins
BSTAR
0.0011934
Loading maneuver chart data...
Computing Atmospheric mass density...
Loading historical data...
Loading historical data...
Loading historical data...
Loading historical data...
Loading historical data...
Loading historical data...
Loading historical data...

Documentation

Showing up to 5 results
|